Weather History for KHSP - January, 2015

Change the Weather History Date:

Thursday, January 15, 2015

  Actual Average Record
Temperature  
Mean Temperature 23 °F -  
Max Temperature 29 °F 30 °F 57 °F (2007)
Min Temperature 17 °F 17 °F 5 °F (2003)
Degree Days  
Heating Degree Days 42    
Moisture  
Dew Point 19 °F    
Average Humidity 87    
Maximum Humidity 100    
Minimum Humidity 29    
Precipitation  
Precipitation 0.00 in - - ()
Sea Level Pressure  
Sea Level Pressure 29.95 in    
Wind  
Wind Speed 11 mph (West)    
Max Wind Speed 22 mph    
Max Gust Speed 31 mph    
Visibility 9 miles    
Events Fog , Snow    
Averages and records for this station are not official NWS values.
T = Trace of Precipitation, MM = Missing Value Source: NWS Daily Summary

Daily Weather History Graph

Daily Weather History Graph

Search for Another Location

Airport or City:

Trip Planner

Search our weather history database for the weather conditions in past years. The results will help you decide how hot, cold, wet, or windy it might be!

Date:

Astronomy

Jan. 15, 2015 Rise Set
Actual Time 7:34 AM EST 5:23 PM EST
Civil Twilight 7:05 AM EST 5:52 PM EST
Nautical Twilight 6:32 AM EST 6:24 PM EST
Astronomical Twilight 6:01 AM EST 6:56 PM EST
Moon 2:27 AM EST (1/15) 1:13 PM EST (1/15)
Length of Visible Light 10h 47m
Length of Day
9h 49m
Waning Crescent, 28% of the Moon is Illuminated
Jan 15
Waning Crescent
Jan 20
New
Jan 26
First Quarter
Feb 3
Full
Feb 11
Last Quarter

Hourly Weather History & Observations

Time (EST) Temp. Windchill Dew Point Humidity Pressure Visibility Wind Dir Wind Speed Gust Speed Precip Events Conditions
12:15 AM 21.2 °F 10.9 °F 21.2 °F 100% 30.02 in 10.0 mi WNW 9.2 mph - N/A   Overcast
12:35 AM 21.0 °F 11.4 °F 21.0 °F 100% 30.01 in 10.0 mi WNW 8.1 mph - N/A   Overcast
12:55 AM 20.5 °F 9.2 °F 20.5 °F 100% 30.01 in 10.0 mi WNW 10.4 mph - N/A   Overcast
1:15 AM 20.3 °F 8.3 °F 20.3 °F 100% 30.00 in 10.0 mi WNW 11.5 mph - N/A   Overcast
1:35 AM 19.8 °F 7.7 °F 19.8 °F 100% 30.00 in 10.0 mi WNW 11.5 mph - N/A   Overcast
1:55 AM 19.2 °F 7.7 °F 19.2 °F 100% 30.00 in 10.0 mi WNW 10.4 mph - N/A   Mostly Cloudy
2:15 AM 19.0 °F 8.2 °F 19.0 °F 100% 30.01 in 10.0 mi WNW 9.2 mph - N/A   Mostly Cloudy
2:35 AM 18.9 °F 9.8 °F 18.9 °F 100% 30.01 in 10.0 mi West 6.9 mph - N/A   Scattered Clouds
2:55 AM 19.2 °F 10.2 °F 19.2 °F 100% 30.02 in 7.0 mi West 6.9 mph - N/A   Mostly Cloudy
3:15 AM 18.5 °F 9.3 °F 18.5 °F 100% 30.01 in 7.0 mi West 6.9 mph - N/A   Overcast
3:35 AM 18.9 °F 8.8 °F 18.9 °F 100% 30.00 in 7.0 mi West 8.1 mph - N/A   Overcast
3:55 AM 18.5 °F 6.8 °F 18.5 °F 100% 30.00 in 5.0 mi West 10.4 mph - N/A   Overcast
4:10 AM 18.5 °F 6.8 °F 18.5 °F 100% 30.00 in 7.0 mi West 10.4 mph - N/A   Overcast
4:35 AM 17.6 °F 8.2 °F 17.6 °F 100% 29.98 in 7.0 mi West 6.9 mph - N/A   Scattered Clouds
4:55 AM 17.6 °F 6.4 °F 17.6 °F 100% 29.98 in 7.0 mi West 9.2 mph - N/A   Clear
5:15 AM 17.6 °F 5.7 °F 17.6 °F 100% 29.99 in 7.0 mi West 10.4 mph - N/A   Clear
5:35 AM 17.6 °F 6.4 °F 17.6 °F 100% 29.99 in 7.0 mi West 9.2 mph - N/A   Clear
5:55 AM 17.8 °F 6.6 °F 17.8 °F 100% 29.99 in 7.0 mi West 9.2 mph - N/A   Scattered Clouds
6:15 AM 17.8 °F 6.6 °F 17.8 °F 100% 29.98 in 7.0 mi West 9.2 mph - N/A   Scattered Clouds
6:55 AM 17.8 °F 8.5 °F 17.8 °F 100% 29.98 in 10.0 mi West 6.9 mph - N/A   Clear
7:15 AM 17.6 °F 7.3 °F 17.6 °F 100% 29.98 in 10.0 mi West 8.1 mph - N/A   Clear
7:35 AM 17.6 °F 6.4 °F 17.6 °F 100% 29.98 in 10.0 mi West 9.2 mph - N/A   Clear
7:55 AM 18.1 °F 5.6 °F 18.1 °F 100% 30.00 in 10.0 mi West 11.5 mph - N/A   Clear
8:15 AM 18.9 °F 8.0 °F 18.9 °F 100% 30.00 in 10.0 mi West 9.2 mph - N/A   Mostly Cloudy
8:35 AM 19.6 °F 8.9 °F 19.6 °F 100% 29.99 in 10.0 mi West 9.2 mph - N/A   Overcast
8:55 AM 20.1 °F 8.8 °F 19.6 °F 98% 29.99 in 10.0 mi West 10.4 mph - N/A   Overcast
9:15 AM 21.2 °F 12.6 °F 18.0 °F 87% 29.99 in 10.0 mi West 6.9 mph - N/A   Overcast
9:35 AM 23.0 °F 14.7 °F 16.5 °F 76% 29.99 in 10.0 mi West 6.9 mph - N/A   Overcast
9:55 AM 26.1 °F 18.4 °F 10.2 °F 51% 30.00 in 10.0 mi West 6.9 mph - N/A   Overcast
10:15 AM 27.3 °F 22.0 °F 12.7 °F 54% 30.00 in 10.0 mi WSW 4.6 mph - N/A   Overcast
10:35 AM 23.5 °F 13.0 °F 20.7 °F 89% 30.00 in 10.0 mi West 10.4 mph - N/A   Overcast
10:55 AM 26.1 °F 16.8 °F 10.9 °F 53% 30.00 in 10.0 mi West 9.2 mph 24.2 mph N/A   Overcast
11:15 AM 29.5 °F 20.4 °F 0.7 °F 29% 29.99 in 10.0 mi West 10.4 mph 18.4 mph N/A   Overcast
11:35 AM 29.5 °F 19.3 °F 2.8 °F 32% 29.98 in 10.0 mi West 12.7 mph 23.0 mph N/A   Overcast
11:55 AM 27.3 °F 17.7 °F 8.4 °F 45% 29.97 in 10.0 mi West 10.4 mph 26.5 mph N/A   Overcast
12:15 PM 27.0 °F 18.0 °F 14.4 °F 59% 29.96 in 10.0 mi West 9.2 mph - N/A   Overcast
12:35 PM 27.5 °F 18.6 °F 10.9 °F 50% 29.96 in 10.0 mi West 9.2 mph - N/A   Overcast
12:55 PM 28.4 °F 18.0 °F 9.3 °F 45% 29.95 in 10.0 mi West 12.7 mph - N/A   Overcast
1:15 PM 28.2 °F 17.7 °F 9.9 °F 46% 29.94 in 10.0 mi West 12.7 mph - N/A   Overcast
1:35 PM 27.9 °F 17.8 °F 12.7 °F 53% 29.95 in 10.0 mi West 11.5 mph - N/A   Overcast
1:55 PM 28.4 °F 17.0 °F 9.9 °F 46% 29.93 in 10.0 mi West 15.0 mph 18.4 mph N/A   Overcast
2:15 PM 28.2 °F 16.3 °F 10.6 °F 48% 29.94 in 10.0 mi West 16.1 mph 19.6 mph N/A   Overcast
2:35 PM 28.6 °F 15.0 °F 12.4 °F 51% 29.93 in 10.0 mi West 21.9 mph 31.1 mph N/A   Overcast
2:55 PM 27.9 °F 15.1 °F 14.9 °F 58% 29.93 in 10.0 mi West 18.4 mph 26.5 mph N/A   Overcast
3:15 PM 27.5 °F 15.0 °F 19.2 °F 71% 29.92 in 10.0 mi West 17.3 mph 23.0 mph N/A   Overcast
3:35 PM 27.3 °F 16.1 °F 20.8 °F 77% 29.92 in 10.0 mi West 13.8 mph 25.3 mph N/A Snow Light Snow
3:55 PM 26.6 °F 13.8 °F 21.9 °F 82% 29.92 in 7.0 mi West 17.3 mph 23.0 mph N/A Snow Light Snow
4:15 PM 25.9 °F 12.5 °F 22.1 °F 86% 29.93 in 10.0 mi West 18.4 mph 21.9 mph N/A   Overcast
4:35 PM 25.7 °F 11.9 °F 23.4 °F 91% 29.92 in 10.0 mi West 19.6 mph - N/A   Overcast
4:55 PM 25.7 °F 11.9 °F 25.7 °F 100% 29.92 in 10.0 mi West 19.6 mph 25.3 mph N/A   Overcast
5:15 PM 25.5 °F 12.4 °F 25.5 °F 100% 29.92 in 10.0 mi West 17.3 mph 24.2 mph N/A   Overcast
5:35 PM 25.2 °F 12.0 °F 25.2 °F 100% 29.91 in 10.0 mi West 17.3 mph 23.0 mph N/A   Overcast
5:55 PM 24.8 °F 11.9 °F 24.8 °F 100% 29.91 in 10.0 mi West 16.1 mph 20.7 mph N/A   Mostly Cloudy
6:15 PM 24.8 °F 11.5 °F 24.8 °F 100% 29.91 in 10.0 mi West 17.3 mph 23.0 mph N/A   Mostly Cloudy
6:35 PM 24.8 °F 11.1 °F 24.8 °F 100% 29.91 in 10.0 mi West 18.4 mph - N/A   Scattered Clouds
6:55 PM 24.8 °F 11.9 °F 24.8 °F 100% 29.91 in 10.0 mi West 16.1 mph - N/A   Mostly Cloudy
7:15 PM 25.2 °F 12.0 °F 25.2 °F 100% 29.91 in 10.0 mi West 17.3 mph 24.2 mph N/A   Overcast
7:35 PM 25.3 °F 12.6 °F 25.3 °F 100% 29.91 in 10.0 mi West 16.1 mph - N/A   Overcast
7:55 PM 25.5 °F 12.0 °F 25.5 °F 100% 29.91 in 10.0 mi West 18.4 mph 23.0 mph N/A   Overcast
8:15 PM 25.5 °F 12.9 °F 25.5 °F 100% 29.90 in 10.0 mi West 16.1 mph - N/A   Overcast
8:35 PM 25.5 °F 12.4 °F 25.5 °F 100% 29.90 in 10.0 mi West 17.3 mph 24.2 mph N/A   Overcast
8:55 PM 25.5 °F 12.4 °F 25.5 °F 100% 29.90 in 7.0 mi West 17.3 mph 25.3 mph N/A   Overcast
9:15 PM 25.5 °F 12.4 °F 25.5 °F 100% 29.90 in 4.0 mi West 17.3 mph - N/A   Overcast
9:35 PM 25.7 °F 12.3 °F 25.7 °F 100% 29.89 in 0.8 mi West 18.4 mph 25.3 mph N/A   Overcast
9:55 PM 26.1 °F 13.6 °F 26.1 °F 100% 29.89 in 0.5 mi West 16.1 mph - N/A Fog Light Freezing Fog
10:15 PM 26.1 °F 12.7 °F 26.1 °F 100% 29.89 in 0.5 mi West 18.4 mph 21.9 mph N/A Fog Light Freezing Fog
10:35 PM 25.9 °F 12.5 °F 25.9 °F 100% 29.89 in 2.5 mi West 18.4 mph 25.3 mph N/A   Overcast
10:55 PM 25.7 °F 12.7 °F 25.7 °F 100% 29.88 in 3.0 mi West 17.3 mph - N/A   Overcast
11:15 PM 25.5 °F 12.0 °F 25.5 °F 100% 29.88 in 7.0 mi WNW 18.4 mph - N/A   Overcast
11:35 PM 25.5 °F 13.3 °F 25.5 °F 100% 29.88 in 7.0 mi West 15.0 mph 23.0 mph N/A   Overcast
11:55 PM 25.3 °F 12.2 °F 25.3 °F 100% 29.87 in 10.0 mi West 17.3 mph 24.2 mph N/A   Overcast